• MPC Preparation (Info)

  • MPEC 2014-U126: 2014 UV33

    The following Minor Planet Electronic Circular may be linked-to from your own Web pages, but must not otherwise be redistributed electronically.

    A form allowing access to any MPEC is at the bottom of this page.


    Read MPEC 2014-U125 Read MPEC 2014-U127


    M.P.E.C. 2014-U126                               Issued 2014 Oct. 29, 22:56 UT
    
         The Minor Planet Electronic Circulars contain information on unusual
             minor planets and routine data on comets.  They are published
       on behalf of Commission 20 of the International Astronomical Union by the
              Minor Planet Center, Smithsonian Astrophysical Observatory,
                              Cambridge, MA 02138, U.S.A.
    
                 Prepared using the Tamkin Foundation Computer Network
    
                                  MPC@CFA.HARVARD.EDU
                URL https://www.minorplanetcenter.net/    ISSN 1523-6714
    
                                       2014 UV33
    
    Additional Observations:
         K14U33V  C1998 02 23.62071 12 59 36.49 +12 22 26.4          18.6 RcEU126566
         K14U33V  C1998 02 23.63081 12 59 36.06 +12 22 36.4          18.3 RcEU126566
         K14U33V  C1998 02 23.64101 12 59 35.58 +12 22 45.2          18.5 RcEU126566
         K14U33V  C1998 03 26.50914 12 25 30.62 +18 15 09.5          18.2 RcEU126566
         K14U33V  C1998 03 26.52019 12 25 29.82 +18 15 12.8          18.2 RcEU126566
         K14U33V  C1998 03 26.53022 12 25 29.05 +18 15 15.6          18.1 RcEU126566
    
    Observer details:
    566 Haleakala-NEAT/GEODSS.  Observers R. Bambery, E. Helin, S. Pravdo,
        M. Hicks, K. Lawrence, P. Kervin, J. Afric.  Measurer R. Matson.  1.0-m
        f/2.2 Ritchey-Chretien + CCD.
    
    Orbital elements:
    2014 UV33                                                Earth MOID = 0.2089 AU
    Epoch 2014 Dec. 9.0 TT = JDT 2457000.5                  MPC
    M 345.25052              (2000.0)            P               Q
    n   0.34420889     Peri.  335.11770     -0.02011524     -0.99015346
    a   2.0164525      Node   115.77643     +0.94111983     -0.06552240
    e   0.4131632      Incl.    8.84958     +0.33747422     +0.12370503
    P   2.86           H   18.0           G   0.15           U   3
    Residuals in seconds of arc
    980223 566  0.1-  0.3-    141023 703  0.3-  0.2+    141024 Y00  0.2+  0.5-
    980223 566  0.1+  0.4+    141023 291  0.0   0.1+    141024 Y00  0.5-  0.3-
    980223 566  0.5-  0.2-    141023 291  0.0   0.1+    141024 Y00  0.9-  0.2+
    980326 566  0.0   0.3+    141023 291  0.0   0.1+    141024 807  0.6+  0.4+
    980326 566  0.6+  0.5+    141023 900  0.2+  0.3+    141024 807  0.5+  0.2+
    980326 566  0.5+  0.5+    141023 900  0.2+  0.3-    141024 807  0.3+  0.2+
    140806 F51  0.1-  0.2+    141023 I93  0.0   0.1-    141024 807  0.3+  0.3+
    140806 F51  0.1-  0.2+    141023 I93  0.3+  0.3+    141024 807  0.3+  0.2+
    140806 F51  0.1-  0.1+    141023 I93  0.1+  0.4+    141024 448  0.6+  0.3-
    140820 F51  0.1-  0.2-    141023 958  0.0   0.4-    141024 448  0.0   0.4-
    140820 F51  0.1-  0.1-    141023 958  0.1-  0.5-    141024 448  0.3+  0.2-
    140820 F51  0.1-  0.1-    141023 958  0.1-  0.5-    141028 G48  0.3+  0.3+
    141023 703  0.2-  0.1-    141024 Y00  0.5-  0.2-    141028 G48  0.1+  0.3+
    141023 703  0.4+  0.1+    141024 Y00  0.2-  0.0     141028 G48  0.3+  0.6+
    141023 703  0.5-  0.2+    141024 Y00  0.2-  0.2-    141028 G48  0.5-  0.5+
    
    Ephemeris:
    2014 UV33                a,e,i = 2.02, 0.41, 9                   q = 1.1833
    Date    TT    R. A. (2000) Decl.     Delta      r     Elong.  Phase     V
    2014 09 29    01 14 11.4 -15 59 44   0.6226  1.5950   157.5    13.9    18.8
    ...
    2014 10 14    01 00 47.9 -19 52 18   0.5591  1.5140   151.9    18.1    18.6
    ...
    2014 10 22    00 52 28.7 -21 17 21   0.5400  1.4720   145.3    22.6    18.6
    ...
    2014 10 28    00 46 40.6 -21 54 11   0.5314  1.4412   139.8    26.4    18.6
    2014 10 29    00 45 47.5 -21 57 51   0.5304  1.4361   138.9    27.0    18.6
    2014 10 30    00 44 56.3 -22 00 47   0.5295  1.4311   138.0    27.7    18.6
    ...
    2014 11 05    00 40 34.0 -22 03 06   0.5259  1.4015   132.5    31.5    18.7
    ...
    2014 11 13    00 37 10.5 -21 26 09   0.5253  1.3636   125.5    36.2    18.8
    ...
    2014 11 28    00 39 54.3 -18 23 55   0.5318  1.2992   114.3    43.8    18.9
    
    A. U. Tomatic                (C) Copyright 2014 MPC           M.P.E.C. 2014-U126
    

    Read MPEC 2014-U125 Read MPEC 2014-U127


    MPEC number:

    Enter an MPEC number in one of the following forms:

    • 1997-B01 (the full form)
    • J97B01 (the packed version of the full form)
    • B01 (the abbreviated form)